Tracking 25707 objects as of 29-Jun-2022
HD Live streaming from Space Station
objects crossing your sky now

SL-16 DEB

Track SL-16 DEB now!
10-day predictions


NORAD ID: 25862
Int'l Code: 1999-039C
Perigee: 648.2 km
Apogee: 882.2 km
Inclination: 97.8 °
Period: 100.0 minutes
Semi major axis: 7136 km
RCS: 0.0838 m2 (small)
Launch date: July 17, 1999
Source: Commonwealth of Independent States (former USSR) (CIS)
Launch site: TYURATAM MISSILE AND SPACE COMPLEX (TTMTR)

Note: This is SATELLITE DEBRIS
aabbcc
Your satellite tracking list
Your tracking list is empty




NASA's NSSDC Master Catalog

Two Line Element Set (TLE):
1 25862U 99039C   22179.77678044  .00000301  00000-0  93743-4 0  9991
2 25862  97.8145 270.3781 0163947 253.2674 105.0470 14.40136947203906
Source of the keplerian elements: AFSPC